Terminal Aerodrome Forecast
Issued by NWS

Home | Current Version | Previous Version | Text Only | Print | Product List | Glossary On
Versions: 1 2 3 4 5 6 7 8 9 10 11 12 13 14 15 16 17 18 19 20 21 22 23 24 25 26 27 28 29 30 31 32 33 34 35 36 37 38 39 40 41 42 43 44 45 46 47 48 49 50
942
FTUS44 KLIX 121138
TAFASD
TAF
KASD 121138Z 1212/1312 00000KT P6SM FEW005 BKN018
      TEMPO 1212/1214 4SM BR
     FM121500 27007KT P6SM BKN025
     FM121700 27009KT P6SM SCT080
     FM130000 VRB03KT P6SM FEW200
     FM130900 02007KT P6SM SKC=

USA.gov is the U.S. government's official web portal to all federal, state and local government web resources and services.